,,Stat5,,Stat1,,Stat2,,Stat3,,Stat4,,Wind1,,Wind1,
time,status,PA1M_AVG,status,PR1M_SUM,status,RH1M_AVG,status,SR1M_AVG,status,TA1M_AVG,status,W1dAve1m,status,W1sAve1m,
2002-10-25, 00:00:00,VALID,918.147,VALID,0,VALID,98.5392,VALID,0.101885,VALID,19.18,VALID,124,VALID,0.506757,
2002-10-25, 00:01:00,VALID,918.149,VALID,0,VALID,98.5875,VALID,0.0849042,VALID,19.1765,VALID,124,VALID,0.750977,
2002-10-25, 00:02:00,VALID,918.132,VALID,0,VALID,98.674,VALID,0.101885,VALID,19.1962,VALID,132,VALID,0.659505,
2002-10-25, 00:03:00,VALID,918.11,VALID,0,VALID,98.7299,VALID,0.0679233,VALID,19.2153,VALID,143,VALID,0.557813,
2002-10-25, 00:04:00,VALID,918.08,VALID,0,VALID,98.7197,VALID,-0.0849042,VALID,19.2343,VALID,119,VALID,0.389678,
2002-10-25, 00:05:00,VALID,918.041,VALID,0,VALID,98.7058,VALID,-0.0849042,VALID,19.241,VALID,117,VALID,0.543403,
2002-10-25, 00:06:00,VALID,918.007,VALID,0,VALID,98.688,VALID,-0.101885,VALID,19.2311,VALID,111,VALID,0.764323,
2002-10-25, 00:07:00,VALID,917.987,VALID,0,VALID,98.7083,VALID,-0.101885,VALID,19.2475,VALID,111,VALID,0.852273,
2002-10-25, 00:08:00,VALID,917.96,VALID,0,VALID,98.6854,VALID,-0.0679233,VALID,19.241,VALID,108,VALID,0.71875,
2002-10-25, 00:09:00,VALID,917.955,VALID,0,VALID,98.6676,VALID,-0.101885,VALID,19.241,VALID,110,VALID,0.676116,
2002-10-25, 00:10:00,VALID,917.944,VALID,0,VALID,98.6473,VALID,-0.101885,VALID,19.2314,VALID,99,VALID,0.399414,
2002-10-25, 00:11:00,VALID,917.948,VALID,0,VALID,98.6676,VALID,-0.101885,VALID,19.2214,VALID,83,VALID,0.459704,
2002-10-25, 00:12:00,VALID,917.919,VALID,0,VALID,98.66,VALID,-0.101885,VALID,19.2443,VALID,76,VALID,0.57307,
2002-10-25, 00:13:00,VALID,917.912,VALID,0,VALID,98.6422,VALID,-0.101885,VALID,19.2413,VALID,75,VALID,0.660275,
2002-10-25, 00:14:00,VALID,917.897,VALID,0,VALID,98.6498,VALID,-0.118866,VALID,19.2443,VALID,74,VALID,0.644531,
2002-10-25, 00:15:00,VALID,917.855,VALID,0,VALID,98.6625,VALID,-0.118866,VALID,19.2572,VALID,71,VALID,0.63737,
2002-10-25, 00:16:00,VALID,917.834,VALID,0,VALID,98.6333,VALID,-0.0849042,VALID,19.2736,VALID,62,VALID,0.643703,
2002-10-25, 00:17:00,VALID,917.813,VALID,0,VALID,98.6104,VALID,-0.101885,VALID,19.2801,VALID,62,VALID,0.388616,
2002-10-25, 00:18:00,VALID,917.793,VALID,0,VALID,98.5595,VALID,-0.101885,VALID,19.2662,VALID,62,VALID,0.434152,
2002-10-25, 00:19:00,VALID,917.775,VALID,0,VALID,98.5341,VALID,0.0169808,VALID,19.2751,VALID,62,VALID,0.331299,
2002-10-25, 00:20:00,VALID,917.769,VALID,0,VALID,98.5061,VALID,0,VALID,19.2684,VALID,53,VALID,0.347862,
2002-10-25, 00:21:00,VALID,917.748,VALID,0,VALID,98.4718,VALID,0,VALID,19.2816,VALID,47,VALID,0.28171,
2002-10-25, 00:22:00,VALID,917.72,VALID,0,VALID,98.4527,VALID,0.0169808,VALID,19.2811,VALID,46,VALID,0.265862,
2002-10-25, 00:23:00,VALID,917.712,VALID,0,VALID,98.4171,VALID,-0.0169808,VALID,19.301,VALID,44,VALID,0.244575,
2002-10-25, 00:24:00,VALID,917.709,VALID,0,VALID,98.3637,VALID,0,VALID,19.3035,VALID,42,VALID,0.304688,
2002-10-25, 00:25:00,VALID,917.667,VALID,0,VALID,98.3713,VALID,0.0339617,VALID,19.3196,VALID,39,VALID,0.196496,
2002-10-25, 00:26:00,VALID,917.661,VALID,0,VALID,98.3281,VALID,0,VALID,19.3395,VALID,15,VALID,0.53683,
2002-10-25, 00:27:00,VALID,917.654,VALID,0,VALID,98.3319,VALID,0,VALID,19.3653,VALID,7,VALID,0.39933,
2002-10-25, 00:28:00,VALID,917.642,VALID,0,VALID,98.3179,VALID,0,VALID,19.414,VALID,7,VALID,0.535889,
2002-10-25, 00:29:00,VALID,917.637,VALID,0,VALID,98.2607,VALID,0,VALID,19.4391,VALID,7,VALID,0.364515,
2002-10-25, 00:30:00,VALID,917.64,VALID,0,VALID,98.1221,VALID,0,VALID,19.4654,VALID,357,VALID,0.172105,
2002-10-25, 00:31:00,VALID,917.654,VALID,0,VALID,97.9644,VALID,0,VALID,19.4587,VALID,312,VALID,0.346828,
2002-10-25, 00:32:00,VALID,917.643,VALID,0,VALID,97.8195,VALID,0,VALID,19.4426,VALID,259,VALID,0.507813,
2002-10-25, 00:33:00,VALID,917.655,VALID,0,VALID,97.7457,VALID,0,VALID,19.4394,VALID,259,VALID,0.186198,
2002-10-25, 00:34:00,VALID,917.665,VALID,0,VALID,97.7584,VALID,0,VALID,19.4394,VALID,259,VALID,0.146544,
2002-10-25, 00:35:00,VALID,917.654,VALID,0,VALID,97.7597,VALID,0.0169808,VALID,19.4431,VALID,259,VALID,0.0542411,
2002-10-25, 00:36:00,VALID,917.644,VALID,0,VALID,97.8004,VALID,0,VALID,19.4498,VALID,259,VALID,0.0256696,
2002-10-25, 00:37:00,VALID,917.643,VALID,0,VALID,97.8538,VALID,0,VALID,19.4627,VALID,259,VALID,0.0180664,
2002-10-25, 00:38:00,VALID,917.62,VALID,0,VALID,97.8907,VALID,-0.0169808,VALID,19.4818,VALID,259,VALID,0.100535,
2002-10-25, 00:39:00,VALID,917.618,VALID,0,VALID,97.85,VALID,0,VALID,19.4684,VALID,259,VALID,0.0429688,
2002-10-25, 00:40:00,VALID,917.615,VALID,0,VALID,97.8551,VALID,0,VALID,19.4878,VALID,259,VALID,0.14607,
2002-10-25, 00:41:00,VALID,917.613,VALID,0,VALID,97.8373,VALID,0,VALID,19.4982,VALID,259,VALID,0.0657552,
2002-10-25, 00:42:00,VALID,917.638,VALID,0,VALID,97.8017,VALID,-0.0169808,VALID,19.494,VALID,259,VALID,0.110026,
2002-10-25, 00:43:00,VALID,917.643,VALID,0,VALID,97.7177,VALID,0,VALID,19.4784,VALID,259,VALID,0.128078,
2002-10-25, 00:44:00,VALID,917.633,VALID,0,VALID,97.7063,VALID,0.0169808,VALID,19.4714,VALID,259,VALID,0.0821429,
2002-10-25, 00:45:00,VALID,917.642,VALID,0,VALID,97.7737,VALID,0.0169808,VALID,19.5012,VALID,259,VALID,0.0363839,
2002-10-25, 00:46:00,VALID,917.66,VALID,0,VALID,97.7877,VALID,0.0339617,VALID,19.5042,VALID,259,VALID,0,
2002-10-25, 00:47:00,VALID,917.646,VALID,0,VALID,97.7508,VALID,0,VALID,19.5203,VALID,259,VALID,0.000205592,
2002-10-25, 00:48:00,VALID,917.645,VALID,0,VALID,97.7915,VALID,0,VALID,19.5397,VALID,325,VALID,0.249311,
2002-10-25, 00:49:00,VALID,917.64,VALID,0,VALID,97.7228,VALID,0,VALID,19.5526,VALID,359,VALID,0.426136,
2002-10-25, 00:50:00,VALID,917.651,VALID,0,VALID,97.6249,VALID,-0.0169808,VALID,19.5462,VALID,17,VALID,0.63954,
2002-10-25, 00:51:00,VALID,917.635,VALID,0,VALID,97.5906,VALID,0.0169808,VALID,19.5621,VALID,22,VALID,0.652344,
2002-10-25, 00:52:00,VALID,917.647,VALID,0,VALID,97.4583,VALID,0,VALID,19.5658,VALID,13,VALID,0.775805,
2002-10-25, 00:53:00,VALID,917.63,VALID,0,VALID,97.321,VALID,0,VALID,19.5492,VALID,2,VALID,0.996875,
2002-10-25, 00:54:00,VALID,917.627,VALID,0,VALID,97.2243,VALID,0.0339617,VALID,19.539,VALID,12,VALID,0.798661,
2002-10-25, 00:55:00,VALID,917.62,VALID,0,VALID,97.115,VALID,0.0169808,VALID,19.5228,VALID,8,VALID,1.14502,
2002-10-25, 00:56:00,VALID,917.628,VALID,0,VALID,97.0908,VALID,0.0169808,VALID,19.5427,VALID,18,VALID,0.897821,
2002-10-25, 00:57:00,VALID,917.605,VALID,0,VALID,97.0819,VALID,0,VALID,19.5459,VALID,12,VALID,1.17808,
2002-10-25, 00:58:00,VALID,917.608,VALID,0,VALID,96.9509,VALID,0,VALID,19.5556,VALID,14,VALID,1.25994,
2002-10-25, 00:59:00,VALID,917.578,VALID,0,VALID,96.7984,VALID,0,VALID,19.5325,VALID,15,VALID,1.09375,
2002-10-25, 01:00:00,VALID,917.578,VALID,0,VALID,96.7577,VALID,0,VALID,19.5338,VALID,21,VALID,0.877455,
2002-10-25, 01:01:00,VALID,917.563,VALID,0,VALID,96.6814,VALID,0,VALID,19.5236,VALID,30,VALID,0.880445,
2002-10-25, 01:02:00,VALID,917.546,VALID,0,VALID,96.6585,VALID,0,VALID,19.5206,VALID,33,VALID,0.876339,
2002-10-25, 01:03:00,VALID,917.548,VALID,0,VALID,96.6559,VALID,0,VALID,19.5111,VALID,34,VALID,0.767411,
2002-10-25, 01:04:00,VALID,917.545,VALID,0,VALID,96.7144,VALID,0,VALID,19.4947,VALID,47,VALID,0.723633,
2002-10-25, 01:05:00,VALID,917.548,VALID,0,VALID,96.6801,VALID,0,VALID,19.4878,VALID,46,VALID,0.870066,
2002-10-25, 01:06:00,VALID,917.533,VALID,0,VALID,96.6127,VALID,0,VALID,19.491,VALID,38,VALID,0.663373,
2002-10-25, 01:07:00,VALID,917.512,VALID,0,VALID,96.5491,VALID,-0.0169808,VALID,19.5074,VALID,52,VALID,0.681108,
2002-10-25, 01:08:00,VALID,917.493,VALID,0,VALID,96.4944,VALID,0,VALID,19.5201,VALID,60,VALID,0.738498,
2002-10-25, 01:09:00,VALID,917.493,VALID,0,VALID,96.3507,VALID,0,VALID,19.527,VALID,63,VALID,0.689887,
2002-10-25, 01:10:00,VALID,917.456,VALID,0,VALID,96.2757,VALID,0,VALID,19.5238,VALID,68,VALID,0.554688,
2002-10-25, 01:11:00,VALID,917.462,VALID,0,VALID,96.2032,VALID,-0.0339617,VALID,19.5305,VALID,71,VALID,0.412054,
2002-10-25, 01:12:00,VALID,917.478,VALID,0,VALID,96.174,VALID,0,VALID,19.5333,VALID,71,VALID,0.142857,
2002-10-25, 01:13:00,VALID,917.469,VALID,0,VALID,96.2172,VALID,-0.0169808,VALID,19.5429,VALID,71,VALID,0.350098,
2002-10-25, 01:14:00,VALID,917.471,VALID,0,VALID,96.1893,VALID,0,VALID,19.5556,VALID,71,VALID,0.448808,
2002-10-25, 01:15:00,VALID,917.473,VALID,0,VALID,96.1575,VALID,0,VALID,19.582,VALID,71,VALID,0.315487,
2002-10-25, 01:16:00,VALID,917.467,VALID,0,VALID,96.1269,VALID,0,VALID,19.5946,VALID,71,VALID,0.32339,
2002-10-25, 01:17:00,VALID,917.456,VALID,0,VALID,96.1816,VALID,0.0169808,VALID,19.6016,VALID,71,VALID,0,
2002-10-25, 01:18:00,VALID,917.457,VALID,0,VALID,96.2401,VALID,0,VALID,19.6073,VALID,71,VALID,0.0334201,
2002-10-25, 01:19:00,VALID,917.435,VALID,0,VALID,96.2948,VALID,0,VALID,19.6145,VALID,71,VALID,0.0205966,
2002-10-25, 01:20:00,VALID,917.414,VALID,0,VALID,96.3495,VALID,0,VALID,19.6235,VALID,102,VALID,0.365625,
2002-10-25, 01:21:00,VALID,917.39,VALID,0,VALID,96.3711,VALID,0,VALID,19.6202,VALID,160,VALID,0.597768,
2002-10-25, 01:22:00,VALID,917.374,VALID,0,VALID,96.4359,VALID,0,VALID,19.61,VALID,159,VALID,0.630127,
2002-10-25, 01:23:00,VALID,917.346,VALID,0,VALID,96.5046,VALID,-0.0169808,VALID,19.6073,VALID,148,VALID,0.618832,
2002-10-25, 01:24:00,VALID,917.326,VALID,0,VALID,96.5936,VALID,-0.0169808,VALID,19.5909,VALID,146,VALID,0.431526,
2002-10-25, 01:25:00,VALID,917.329,VALID,0,VALID,96.7195,VALID,0.0169808,VALID,19.5842,VALID,145,VALID,0.292614,
2002-10-25, 01:26:00,VALID,917.328,VALID,0,VALID,96.7933,VALID,0,VALID,19.5678,VALID,145,VALID,0.0800781,
2002-10-25, 01:27:00,VALID,917.347,VALID,0,VALID,96.8925,VALID,0,VALID,19.5812,VALID,79,VALID,0.145399,
2002-10-25, 01:28:00,VALID,917.359,VALID,0,VALID,96.9853,VALID,0.0339617,VALID,19.5842,VALID,306,VALID,0.517045,
2002-10-25, 01:29:00,VALID,917.358,VALID,0,VALID,96.956,VALID,0,VALID,19.5944,VALID,275,VALID,0.299554,
2002-10-25, 01:30:00,VALID,917.351,VALID,0,VALID,96.9357,VALID,0,VALID,19.5844,VALID,268,VALID,0.0866071,
2002-10-25, 01:31:00,VALID,917.35,VALID,0,VALID,96.9001,VALID,0,VALID,19.5812,VALID,268,VALID,0,
2002-10-25, 01:32:00,VALID,917.345,VALID,0,VALID,96.8746,VALID,0,VALID,19.5981,VALID,268,VALID,0,
2002-10-25, 01:33:00,VALID,917.333,VALID,0,VALID,96.8848,VALID,-0.0169808,VALID,19.6011,VALID,268,VALID,0,
2002-10-25, 01:34:00,VALID,917.319,VALID,0,VALID,96.881,VALID,0,VALID,19.6073,VALID,268,VALID,0,
2002-10-25, 01:35:00,VALID,917.321,VALID,0,VALID,96.8785,VALID,-0.0169808,VALID,19.6167,VALID,266,VALID,0,
2002-10-25, 01:36:00,VALID,917.31,VALID,0,VALID,96.8454,VALID,0,VALID,19.6334,VALID,260,VALID,0.156467,
2002-10-25, 01:37:00,VALID,917.301,VALID,0,VALID,96.8022,VALID,-0.0339617,VALID,19.6272,VALID,260,VALID,0.238163,
2002-10-25, 01:38:00,VALID,917.299,VALID,0,VALID,96.8416,VALID,0,VALID,19.6525,VALID,263,VALID,0.262277,
2002-10-25, 01:39:00,VALID,917.289,VALID,0,VALID,96.8276,VALID,-0.0169808,VALID,19.6461,VALID,263,VALID,0.125223,
2002-10-25, 01:40:00,VALID,917.284,VALID,0,VALID,96.8721,VALID,-0.0169808,VALID,19.6726,VALID,263,VALID,0.0705566,
2002-10-25, 01:41:00,VALID,917.267,VALID,0,VALID,96.8301,VALID,-0.0339617,VALID,19.659,VALID,281,VALID,0.107525,
2002-10-25, 01:42:00,VALID,917.235,VALID,0,VALID,96.8797,VALID,0,VALID,19.6853,VALID,283,VALID,0.0105699,
2002-10-25, 01:43:00,VALID,917.191,VALID,0,VALID,96.8632,VALID,-0.0339617,VALID,19.6848,VALID,283,VALID,0.0485322,
2002-10-25, 01:44:00,VALID,917.145,VALID,0,VALID,96.7844,VALID,0,VALID,19.6913,VALID,338,VALID,0.230252,
2002-10-25, 01:45:00,VALID,917.124,VALID,0,VALID,96.7653,VALID,0,VALID,19.6751,VALID,350,VALID,0.101563,
2002-10-25, 01:46:00,VALID,917.081,VALID,0,VALID,96.7793,VALID,-0.0169808,VALID,19.6851,VALID,350,VALID,0,
2002-10-25, 01:47:00,VALID,917.071,VALID,0,VALID,96.7399,VALID,-0.0339617,VALID,19.6821,VALID,350,VALID,0,
2002-10-25, 01:48:00,VALID,917.056,VALID,0,VALID,96.7373,VALID,-0.0169808,VALID,19.6592,VALID,350,VALID,0.11808,
2002-10-25, 01:49:00,VALID,917.026,VALID,0,VALID,96.7004,VALID,0.101885,VALID,19.625,VALID,350,VALID,0,
2002-10-25, 01:50:00,VALID,917.002,VALID,0,VALID,96.7551,VALID,0.101885,VALID,19.612,VALID,350,VALID,0.0814145,
2002-10-25, 01:51:00,VALID,916.996,VALID,0,VALID,96.8314,VALID,0.101885,VALID,19.6091,VALID,350,VALID,0.201287,
2002-10-25, 01:52:00,VALID,916.977,VALID,0,VALID,96.9331,VALID,0.101885,VALID,19.615,VALID,350,VALID,0.310606,
2002-10-25, 01:53:00,VALID,916.976,VALID,0,VALID,96.8212,VALID,0.0849042,VALID,19.5961,VALID,350,VALID,0.193793,
2002-10-25, 01:54:00,VALID,916.961,VALID,0,VALID,96.8568,VALID,0.0849042,VALID,19.5763,VALID,350,VALID,0.200955,
2002-10-25, 01:55:00,VALID,916.933,VALID,0,VALID,96.9281,VALID,0.118866,VALID,19.5698,VALID,350,VALID,0.204309,
2002-10-25, 01:56:00,VALID,916.914,VALID,0,VALID,97.0234,VALID,0.118866,VALID,19.5931,VALID,350,VALID,0.14308,
2002-10-25, 01:57:00,VALID,916.922,VALID,0,VALID,97.04,VALID,0.0849042,VALID,19.5758,VALID,350,VALID,0.00290179,
2002-10-25, 01:58:00,VALID,916.91,VALID,0,VALID,97.0463,VALID,0.101885,VALID,19.5862,VALID,350,VALID,0.000976563,
2002-10-25, 01:59:00,VALID,916.908,VALID,0,VALID,97.1061,VALID,0.0849042,VALID,19.6093,VALID,350,VALID,0.00102796,
2002-10-25, 02:00:00,VALID,916.905,VALID,0,VALID,97.045,VALID,0.101885,VALID,19.5899,VALID,350,VALID,0.00183824,
2002-10-25, 02:01:00,VALID,916.883,VALID,0,VALID,97.0984,VALID,0.101885,VALID,19.5862,VALID,350,VALID,0.03125,
2002-10-25, 02:02:00,VALID,916.862,VALID,0,VALID,97.1519,VALID,0.101885,VALID,19.5924,VALID,350,VALID,0.000217014,
2002-10-25, 02:03:00,VALID,916.849,VALID,0,VALID,97.204,VALID,0.135847,VALID,19.5892,VALID,350,VALID,0.0249566,
2002-10-25, 02:04:00,VALID,916.836,VALID,0,VALID,97.2879,VALID,-0.0679233,VALID,19.6147,VALID,350,VALID,0.0722064,
2002-10-25, 02:05:00,VALID,916.82,VALID,0,VALID,97.3413,VALID,-0.0339617,VALID,19.6207,VALID,350,VALID,0.251786,
2002-10-25, 02:06:00,VALID,916.808,VALID,0,VALID,97.3401,VALID,-0.0509425,VALID,19.6436,VALID,352,VALID,0.378571,
2002-10-25, 02:07:00,VALID,916.794,VALID,0,VALID,97.2676,VALID,-0.0509425,VALID,19.6562,VALID,14,VALID,0.79541,
2002-10-25, 02:08:00,VALID,916.79,VALID,0,VALID,97.1366,VALID,-0.0339617,VALID,19.6401,VALID,23,VALID,1.25637,
2002-10-25, 02:09:00,VALID,916.781,VALID,0,VALID,97.1163,VALID,-0.0339617,VALID,19.6438,VALID,22,VALID,0.882123,
2002-10-25, 02:10:00,VALID,916.787,VALID,0,VALID,97.176,VALID,-0.0509425,VALID,19.6371,VALID,24,VALID,0.500237,
2002-10-25, 02:11:00,VALID,916.797,VALID,0,VALID,97.1366,VALID,-0.0339617,VALID,19.647,VALID,23,VALID,0.117405,
2002-10-25, 02:12:00,VALID,916.776,VALID,0,VALID,97.0946,VALID,-0.0339617,VALID,19.6371,VALID,23,VALID,0.00217014,
2002-10-25, 02:13:00,VALID,916.781,VALID,0,VALID,97.0412,VALID,-0.0169808,VALID,19.6339,VALID,23,VALID,0.0416667,
2002-10-25, 02:14:00,VALID,916.792,VALID,0,VALID,97.0501,VALID,-0.0849042,VALID,19.6344,VALID,24,VALID,0.0828125,
2002-10-25, 02:15:00,VALID,916.761,VALID,0,VALID,97.0527,VALID,-0.0339617,VALID,19.621,VALID,24,VALID,0.00401786,
2002-10-25, 02:16:00,VALID,916.743,VALID,0,VALID,97.0463,VALID,-0.101885,VALID,19.6215,VALID,24,VALID,0.0239258,
2002-10-25, 02:17:00,VALID,916.756,VALID,0,VALID,97.0908,VALID,-0.0679233,VALID,19.6185,VALID,24,VALID,0,
2002-10-25, 02:18:00,VALID,916.744,VALID,0,VALID,97.1786,VALID,-0.0509425,VALID,19.615,VALID,24,VALID,0,
2002-10-25, 02:19:00,VALID,916.749,VALID,0,VALID,97.2078,VALID,-0.0849042,VALID,19.6118,VALID,24,VALID,0,
2002-10-25, 02:20:00,VALID,916.754,VALID,0,VALID,97.2688,VALID,-0.0679233,VALID,19.6118,VALID,24,VALID,0,
2002-10-25, 02:21:00,VALID,916.759,VALID,0,VALID,97.335,VALID,-0.0169808,VALID,19.6147,VALID,24,VALID,0.142144,
2002-10-25, 02:22:00,VALID,916.776,VALID,0,VALID,97.3502,VALID,-0.0849042,VALID,19.6274,VALID,23,VALID,0.679924,
2002-10-25, 02:23:00,VALID,916.797,VALID,0,VALID,97.396,VALID,-0.0849042,VALID,19.6242,VALID,25,VALID,0.732589,
2002-10-25, 02:24:00,VALID,916.807,VALID,0,VALID,97.4494,VALID,-0.0679233,VALID,19.6473,VALID,19,VALID,0.70692,
2002-10-25, 02:25:00,VALID,916.818,VALID,0,VALID,97.4481,VALID,-0.0679233,VALID,19.6341,VALID,27,VALID,0.755127,
2002-10-25, 02:26:00,VALID,916.831,VALID,0,VALID,97.4736,VALID,-0.0169808,VALID,19.6436,VALID,25,VALID,0.950863,
2002-10-25, 02:27:00,VALID,916.833,VALID,0,VALID,97.5232,VALID,-0.0339617,VALID,19.65,VALID,26,VALID,0.949219,
2002-10-25, 02:28:00,VALID,916.821,VALID,0,VALID,97.5461,VALID,-0.101885,VALID,19.6468,VALID,30,VALID,0.802083,
2002-10-25, 02:29:00,VALID,916.823,VALID,0,VALID,97.5855,VALID,-0.0679233,VALID,19.647,VALID,25,VALID,0.292101,
2002-10-25, 02:30:00,VALID,916.8,VALID,0,VALID,97.6592,VALID,-0.0679233,VALID,19.6761,VALID,25,VALID,0.269314,
2002-10-25, 02:31:00,VALID,916.801,VALID,0,VALID,97.6071,VALID,-0.0339617,VALID,19.6759,VALID,25,VALID,0.0589489,
2002-10-25, 02:32:00,VALID,916.793,VALID,0,VALID,97.5486,VALID,-0.0339617,VALID,19.6794,VALID,22,VALID,0.234375,
2002-10-25, 02:33:00,VALID,916.794,VALID,0,VALID,97.5321,VALID,-0.0169808,VALID,19.6759,VALID,13,VALID,0.621875,
2002-10-25, 02:34:00,VALID,916.787,VALID,0,VALID,97.5015,VALID,-0.0509425,VALID,19.6789,VALID,11,VALID,0.221191,
2002-10-25, 02:35:00,VALID,916.788,VALID,0,VALID,97.4685,VALID,-0.0509425,VALID,19.6826,VALID,11,VALID,0.00801809,
2002-10-25, 02:36:00,VALID,916.802,VALID,0,VALID,97.4316,VALID,-0.0339617,VALID,19.6764,VALID,239,VALID,0.32284,
2002-10-25, 02:37:00,VALID,916.793,VALID,0,VALID,97.3769,VALID,-0.0679233,VALID,19.6697,VALID,189,VALID,0.45928,
2002-10-25, 02:38:00,VALID,916.797,VALID,0,VALID,97.3642,VALID,-0.0679233,VALID,19.6637,VALID,188,VALID,0.239149,
2002-10-25, 02:39:00,VALID,916.816,VALID,0,VALID,97.41,VALID,-0.0679233,VALID,19.6401,VALID,188,VALID,0.0980903,
2002-10-25, 02:40:00,VALID,916.815,VALID,0,VALID,97.5257,VALID,-0.0339617,VALID,19.6597,VALID,177,VALID,0.147254,
2002-10-25, 02:41:00,VALID,916.813,VALID,0,VALID,97.6122,VALID,-0.0339617,VALID,19.6659,VALID,76,VALID,0.375446,
2002-10-25, 02:42:00,VALID,916.804,VALID,0,VALID,97.6122,VALID,-0.0679233,VALID,19.6726,VALID,38,VALID,0.562277,
2002-10-25, 02:43:00,VALID,916.784,VALID,0,VALID,97.6338,VALID,-0.0339617,VALID,19.689,VALID,31,VALID,0.439941,
2002-10-25, 02:44:00,VALID,916.789,VALID,0,VALID,97.6694,VALID,-0.0679233,VALID,19.6928,VALID,31,VALID,0.0953947,
2002-10-25, 02:45:00,VALID,916.766,VALID,0,VALID,97.6033,VALID,-0.0849042,VALID,19.6953,VALID,325,VALID,0.235064,
2002-10-25, 02:46:00,VALID,916.771,VALID,0,VALID,97.541,VALID,-0.0509425,VALID,19.6823,VALID,240,VALID,0.0175189,
2002-10-25, 02:47:00,VALID,916.766,VALID,0,VALID,97.5728,VALID,-0.0339617,VALID,19.6692,VALID,6,VALID,0.477431,
2002-10-25, 02:48:00,VALID,916.752,VALID,0,VALID,97.6122,VALID,-0.0339617,VALID,19.6925,VALID,24,VALID,0.950304,
2002-10-25, 02:49:00,VALID,916.755,VALID,0,VALID,97.6541,VALID,0.0849042,VALID,19.6938,VALID,27,VALID,0.804688,
2002-10-25, 02:50:00,VALID,916.77,VALID,0,VALID,97.6796,VALID,0.0849042,VALID,19.7201,VALID,22,VALID,0.647768,
2002-10-25, 02:51:00,VALID,916.747,VALID,0,VALID,97.6834,VALID,0.0339617,VALID,19.7365,VALID,17,VALID,0.585938,
2002-10-25, 02:52:00,VALID,916.76,VALID,0,VALID,97.6847,VALID,0.0679233,VALID,19.7355,VALID,24,VALID,0.494873,
2002-10-25, 02:53:00,VALID,916.745,VALID,0,VALID,97.6402,VALID,0.0679233,VALID,19.7422,VALID,27,VALID,0.32278,
2002-10-25, 02:54:00,VALID,916.753,VALID,0,VALID,97.5575,VALID,0.0679233,VALID,19.7522,VALID,45,VALID,0.252987,
2002-10-25, 02:55:00,VALID,916.738,VALID,0,VALID,97.3579,VALID,0.101885,VALID,19.7194,VALID,31,VALID,0.915956,
2002-10-25, 02:56:00,VALID,916.711,VALID,0,VALID,97.4189,VALID,0.0679233,VALID,19.7129,VALID,14,VALID,0.965712,
2002-10-25, 02:57:00,VALID,916.713,VALID,0,VALID,97.5028,VALID,0.0849042,VALID,19.7231,VALID,23,VALID,0.807292,
2002-10-25, 02:58:00,VALID,916.706,VALID,0,VALID,97.5041,VALID,0.0849042,VALID,19.7097,VALID,11,VALID,0.473011,
2002-10-25, 02:59:00,VALID,916.706,VALID,0,VALID,97.4952,VALID,0.0679233,VALID,19.7072,VALID,18,VALID,0.598437,
2002-10-25, 03:00:00,VALID,916.712,VALID,0,VALID,97.5015,VALID,0.0849042,VALID,19.69,VALID,17,VALID,0.310268,
2002-10-25, 03:01:00,VALID,916.726,VALID,0,VALID,97.5384,VALID,0.0849042,VALID,19.69,VALID,11,VALID,0.168945,
2002-10-25, 03:02:00,VALID,916.729,VALID,0,VALID,97.5448,VALID,0.0679233,VALID,19.6871,VALID,10,VALID,0.391859,
2002-10-25, 03:03:00,VALID,916.731,VALID,0,VALID,97.555,VALID,0.0849042,VALID,19.6938,VALID,10,VALID,0.0831801,
2002-10-25, 03:04:00,VALID,916.74,VALID,0,VALID,97.5944,VALID,-0.101885,VALID,19.7087,VALID,10,VALID,0.348248,
2002-10-25, 03:05:00,VALID,916.74,VALID,0,VALID,97.5766,VALID,-0.101885,VALID,19.6987,VALID,10,VALID,0.161458,
2002-10-25, 03:06:00,VALID,916.739,VALID,0,VALID,97.5817,VALID,-0.118866,VALID,19.7022,VALID,10,VALID,0.114149,
2002-10-25, 03:07:00,VALID,916.732,VALID,0,VALID,97.5689,VALID,-0.101885,VALID,19.7156,VALID,10,VALID,0.0653409,
2002-10-25, 03:08:00,VALID,916.734,VALID,0,VALID,97.5422,VALID,-0.0849042,VALID,19.7156,VALID,313,VALID,0.053125,
2002-10-25, 03:09:00,VALID,916.716,VALID,0,VALID,97.4965,VALID,-0.101885,VALID,19.7059,VALID,292,VALID,0.0339286,
2002-10-25, 03:10:00,VALID,916.705,VALID,0,VALID,97.4863,VALID,-0.101885,VALID,19.689,VALID,320,VALID,0,
2002-10-25, 03:11:00,VALID,916.719,VALID,0,VALID,97.5257,VALID,-0.101885,VALID,19.6987,VALID,320,VALID,0.00102796,
2002-10-25, 03:12:00,VALID,916.701,VALID,0,VALID,97.5295,VALID,-0.0849042,VALID,19.7049,VALID,320,VALID,0,
2002-10-25, 03:13:00,VALID,916.689,VALID,0,VALID,97.5194,VALID,-0.101885,VALID,19.7117,VALID,320,VALID,0.0329072,
2002-10-25, 03:14:00,VALID,916.687,VALID,0,VALID,97.4634,VALID,-0.101885,VALID,19.702,VALID,320,VALID,0,
2002-10-25, 03:15:00,VALID,916.706,VALID,0,VALID,97.4316,VALID,-0.0849042,VALID,19.6925,VALID,323,VALID,0,
2002-10-25, 03:16:00,VALID,916.721,VALID,0,VALID,97.4342,VALID,-0.0849042,VALID,19.6823,VALID,45,VALID,0.0627367,
2002-10-25, 03:17:00,VALID,916.749,VALID,0,VALID,97.4125,VALID,-0.101885,VALID,19.6863,VALID,59,VALID,0.354018,
2002-10-25, 03:18:00,VALID,916.774,VALID,0,VALID,97.424,VALID,-0.101885,VALID,19.6766,VALID,23,VALID,0.748884,
2002-10-25, 03:19:00,VALID,916.802,VALID,0,VALID,97.4965,VALID,0,VALID,19.6717,VALID,22,VALID,0.739014,
2002-10-25, 03:20:00,VALID,916.81,VALID,0,VALID,97.602,VALID,0.0169808,VALID,19.6714,VALID,16,VALID,1.19038,
2002-10-25, 03:21:00,VALID,916.832,VALID,0,VALID,97.6529,VALID,0.0169808,VALID,19.6813,VALID,9,VALID,0.527803,
2002-10-25, 03:22:00,VALID,916.836,VALID,0,VALID,97.7076,VALID,0,VALID,19.6876,VALID,2,VALID,0.456203,
2002-10-25, 03:23:00,VALID,916.849,VALID,0,VALID,97.8042,VALID,0.0169808,VALID,19.7104,VALID,16,VALID,0.702691,
2002-10-25, 03:24:00,VALID,916.857,VALID,0,VALID,97.8334,VALID,0,VALID,19.7164,VALID,21,VALID,0.541233,
2002-10-25, 03:25:00,VALID,916.841,VALID,0,VALID,97.8563,VALID,0.0339617,VALID,19.7293,VALID,22,VALID,0.373816,
2002-10-25, 03:26:00,VALID,916.851,VALID,0,VALID,97.9479,VALID,0,VALID,19.7489,VALID,26,VALID,0.657366,
2002-10-25, 03:27:00,VALID,916.841,VALID,0,VALID,97.8576,VALID,0.0169808,VALID,19.7487,VALID,10,VALID,0.902232,
2002-10-25, 03:28:00,VALID,916.844,VALID,0,VALID,97.8093,VALID,0.0339617,VALID,19.7166,VALID,12,VALID,0.642822,
2002-10-25, 03:29:00,VALID,916.827,VALID,0,VALID,97.8309,VALID,0,VALID,19.7005,VALID,13,VALID,0.80222,
2002-10-25, 03:30:00,VALID,916.825,VALID,0,VALID,97.8017,VALID,0,VALID,19.688,VALID,9,VALID,0.966452,
2002-10-25, 03:31:00,VALID,916.814,VALID,0,VALID,97.8601,VALID,0,VALID,19.6751,VALID,14,VALID,0.852746,
2002-10-25, 03:32:00,VALID,916.821,VALID,0,VALID,97.9428,VALID,0.0169808,VALID,19.6585,VALID,20,VALID,0.831814,
2002-10-25, 03:33:00,VALID,916.827,VALID,0,VALID,97.9886,VALID,0,VALID,19.6483,VALID,20,VALID,0.824436,
2002-10-25, 03:34:00,VALID,916.836,VALID,0,VALID,97.9301,VALID,0.0169808,VALID,19.6391,VALID,12,VALID,0.982955,